This demonstration page uses our WeatherBlox Daily Observations layout. Learn more.

Hourly Observations for January 30, 2020

Temp ( °F °C ) Dew Point ( °F °C ) Humidity (%) Winds ( mph kmh ) Pressure ( in mb ) Visibility ( mi km ) Precip ( " mm )
12:15 am 00:15 Cloudy 33 0.8 32 0.2 96 96 SSE 3 6 30.14 1021 10 16.0934 0 0
12:35 am 00:35 Cloudy 33 0.7 32 0.1 96 96 S 5 7 30.13 1020 10 16.0934 0 0
12:55 am 00:55 Cloudy 33 0.5 32 0 96 96 S 7 11 30.13 1020 10 16.0934 0 0
1:15 am 01:15 Cloudy 33 0.3 32 0 98 98 S 8 13 30.12 1020 10 16.0934 0 0
1:35 am 01:35 Cloudy 33 0.3 32 -0.1 97 97 S 8 13 30.11 1020 10 16.0934 0 0
1:55 am 01:55 Cloudy 32 0.2 32 -0.1 98 98 S 8 13 30.11 1020 10 16.0934 0 0
2:15 am 02:15 Cloudy 32 0 31 -0.3 98 98 S 8 13 30.11 1020 10 16.0934 0 0
2:35 am 02:35 Cloudy 32 0 31 -0.5 96 96 SSW 8 13 30.11 1020 10 16.0934 0 0
2:55 am 02:55 Cloudy 32 -0.1 31 -0.7 96 96 SW 7 11 30.12 1020 10 16.0934 0 0
3:15 am 03:15 Cloudy 32 -0.1 31 -0.7 96 96 SSW 5 7 30.12 1020 10 16.0934 0 0
3:35 am 03:35 Cloudy 32 -0.2 31 -0.7 96 96 SSW 8 13 30.11 1020 10 16.0934 0 0
3:55 am 03:55 Cloudy 32 -0.2 31 -0.7 96 96 S 5 7 30.11 1020 10 16.0934 0 0
4:15 am 04:15 Cloudy 31 -0.3 31 -0.8 96 96 S 9 15 30.1 1019 10 16.0934 0 0
4:35 am 04:35 Cloudy 31 -0.4 30 -0.9 96 96 S 9 15 30.09 1019 10 16.0934 0 0
4:55 am 04:55 Cloudy 31 -0.5 30 -1 96 96 S 9 15 30.08 1019 10 16.0934 0 0
5:15 am 05:15 Cloudy 31 -0.5 30 -1 96 96 SSW 9 15 30.09 1019 7 11.26538 0 0
5:35 am 05:35 Cloudy 31 -0.5 30 -1 96 96 SSW 8 13 30.08 1019 10 16.0934 0 0
5:55 am 05:55 Cloudy 31 -0.5 31 -0.8 98 98 S 8 13 30.07 1018 10 16.0934 0 0
6:15 am 06:15 Cloudy 31 -0.6 30 -1 97 97 S 10 17 30.07 1018 7 11.26538 0 0
6:35 am 06:35 Cloudy with Mist and Fog 31 -0.6 30 -1 97 97 SSW 8 13 30.07 1018 3 4.82802 0 0
6:55 am 06:55 Cloudy with Mist and Fog 31 -0.6 30 -1 97 97 SW 5 7 30.08 1019 1.25 2.011675 0 0
7:15 am 07:15 Cloudy with Mist and Fog 31 -0.7 30 -1 98 98 SW 7 11 30.08 1019 0.75 1.207005 0 0
7:35 am 07:35 Cloudy with Freezing Fog 31 -0.8 30 -1.1 98 98 SW 6 9 30.08 1019 0.5 0.80467 0 0
7:55 am 07:55 Cloudy with Freezing Fog 31 -0.8 30 -1.2 97 97 SW 6 9 30.08 1019 0.5 0.80467 0 0
8:15 am 08:15 Cloudy with Freezing Fog 30 -1 30 -1.2 99 99 SW 3 6 30.08 1019 N/A 0 0
8:35 am 08:35 Cloudy with Freezing Fog 30 -1 30 -1.2 99 99 SSW 5 7 30.08 1019 N/A 0 0
8:55 am 08:55 Cloudy with Freezing Fog 30 -1 30 -1.2 99 99 Calm 30.08 1019 N/A 0 0
9:15 am 09:15 Cloudy with Freezing Fog 30 -1 30 -1.3 98 98 S 6 9 30.08 1019 N/A 0 0
9:35 am 09:35 Cloudy with Freezing Fog 31 -0.8 30 -1.1 98 98 S 6 9 30.08 1019 N/A 0 0
9:55 am 09:55 Cloudy with Freezing Fog 31 -0.4 31 -0.7 98 98 SW 3 6 30.08 1019 N/A 0 0
10:15 am 10:15 Cloudy with Freezing Fog 32 -0.2 31 -0.5 98 98 SSW 5 7 30.07 1018 0.25 0.402335 0 0
10:35 am 10:35 Cloudy with Fog 32 0 32 0 100 100 SSW 6 9 30.06 1018 0.5 0.80467 0 0
10:55 am 10:55 Cloudy with Mist and Fog 33 0.6 32 0.2 97 97 SSW 5 7 30.06 1018 0.75 1.207005 0 0
11:15 am 11:15 Cloudy with Mist and Fog 34 1.2 34 1 99 99 SSW 5 7 30.05 1018 0.75 1.207005 0 0
11:35 am 11:35 Cloudy with Mist and Fog 35 1.8 35 1.5 98 98 SSW 5 7 30.05 1018 2 3.21868 0 0
11:55 am 11:55 Cloudy with Mist and Fog 36 2.1 35 1.7 97 97 SSW 6 9 30.03 1017 1.75 2.816345 0 0
12:15 pm 12:15 Cloudy with Mist and Fog 37 2.5 36 2.1 97 97 SSW 5 7 30.03 1017 1.75 2.816345 0 0
12:35 pm 12:35 Cloudy 37 3 37 2.6 97 97 SSW 6 9 30.01 1016 7 11.26538 0 0
12:55 pm 12:55 Mostly Cloudy 39 4.1 39 3.7 97 97 SW 6 9 30 1016 10 16.0934 0 0
1:15 pm 13:15 Partly Cloudy 42 5.6 41 5 96 96 SW 7 11 29.97 1015 10 16.0934 0 0
1:35 pm 13:35 Partly Cloudy 45 7 39 4.1 82 82 SW 7 11 29.96 1015 10 16.0934 0 0
1:55 pm 13:55 Cloudy 45 7.3 39 3.8 79 79 SW 6 9 29.95 1014 10 16.0934 0 0
2:15 pm 14:15 Cloudy 46 7.7 39 3.8 77 77 SW 7 11 29.93 1014 10 16.0934 0 0
2:35 pm 14:35 Mostly Cloudy 47 8.1 39 3.8 75 75 SW 8 13 29.93 1014 10 16.0934 0 0
2:55 pm 14:55 Cloudy 47 8.5 39 3.8 73 73 SSW 8 13 29.92 1013 10 16.0934 0 0
3:15 pm 15:15 Partly Cloudy 47 8.6 38 3.4 70 70 SW 7 11 29.92 1013 10 16.0934 0 0
3:35 pm 15:35 Partly Cloudy 48 8.7 37 3 68 68 WSW 7 11 29.91 1013 10 16.0934 0 0
3:55 pm 15:55 Sunny 48 8.8 37 2.6 65 65 SSW 5 7 29.91 1013 10 16.0934 0 0
4:15 pm 16:15 Sunny 48 8.9 37 2.9 66 66 W 8 13 29.92 1013 10 16.0934 0 0
4:35 pm 16:35 Sunny 47 8.6 36 2.1 64 64 SW 6 9 29.92 1013 10 16.0934 0 0
4:55 pm 16:55 Partly Cloudy 47 8.6 37 2.6 66 66 SW 5 7 29.92 1013 10 16.0934 0 0
5:15 pm 17:15 Partly Cloudy 47 8.2 37 2.5 68 68 SSW 5 7 29.92 1013 10 16.0934 0 0
5:35 pm 17:35 Sunny 44 6.4 36 2.2 75 75 S 6 9 29.94 1014 10 16.0934 0 0
5:55 pm 17:55 Clear 42 5.4 35 1.8 78 78 S 6 9 29.95 1014 10 16.0934 0 0
6:15 pm 18:15 Mostly Cloudy 40 4.5 34 1.2 79 79 SSE 7 11 29.96 1015 10 16.0934 0 0
6:35 pm 18:35 Partly Cloudy 38 3.2 34 1.3 88 88 Calm 29.98 1015 10 16.0934 0 0
6:55 pm 18:55 Clear 38 3.1 35 1.5 89 89 S 6 9 30 1016 10 16.0934 0 0
7:15 pm 19:15 Clear 38 3.2 35 1.5 89 89 S 3 6 29.99 1016 10 16.0934 0 0
7:35 pm 19:35 Clear 37 2.5 34 1 90 90 S 6 9 30 1016 10 16.0934 0 0
7:55 pm 19:55 Clear 37 2.7 34 1.2 90 90 S 5 7 30.01 1016 10 16.0934 0 0
8:15 pm 20:15 Clear 36 2.3 33 0.8 90 90 Calm 30.01 1016 10 16.0934 0 0
8:35 pm 20:35 Clear 36 2.3 34 0.9 91 91 W 3 6 30.02 1017 10 16.0934 0 0
8:55 pm 20:55 Clear 37 3 31 -0.8 76 76 NNW 6 9 30.02 1016 10 16.0934 0 0
9:15 pm 21:15 Clear 36 2 30 -0.9 81 81 NW 8 13 30.04 1017 10 16.0934 0 0
9:35 pm 21:35 Partly Cloudy 36 2.3 31 -0.6 81 81 NNW 9 15 30.04 1017 10 16.0934 0 0
9:55 pm 21:55 Partly Cloudy 36 2 31 -0.5 84 84 NNW 8 13 30.05 1017 10 16.0934 0 0
10:15 pm 22:15 Clear 35 1.9 31 -0.5 84 84 NW 9 15 30.06 1018 10 16.0934 0 0
10:35 pm 22:35 Mostly Cloudy 35 1.8 32 -0.2 87 87 NW 9 15 30.06 1018 10 16.0934 0 0
10:55 pm 22:55 Mostly Cloudy 35 1.8 32 -0.1 87 87 NW 10 17 30.06 1018 10 16.0934 0 0
11:15 pm 23:15 Clear 36 2 32 0 87 87 NNW 12 19 30.06 1018 10 16.0934 0 0
11:35 pm 23:35 Clear 36 2 32 0 87 87 NW 9 15 30.06 1018 10 16.0934 0 0
11:55 pm 23:55 Clear 35 1.8 32 -0.1 87 87 NW 13 20 30.07 1018 10 16.0934 0 0

Powered by AerisWeather